Regional Weather Roundup
Issued by NWS Green Bay, WI

Home | Current Version | Previous Version | Graphics & Text | Print | Product List | Glossary Off
Versions: 1 2 3 4 5 6 7 8 9 10 11 12 13 14 15 16 17 18 19 20 21 22 23 24 25 26 27 28 29 30 31 32 33 34 35 36 37 38 39 40 41 42 43 44 45 46 47 48 49 50

000
ASUS43 KGRB 210811
RWRGRB

NORTH-CENTRAL AND NORTHEAST WISCONSIN REGIONAL WEATHER ROUNDUP
NATIONAL WEATHER SERVICE GREEN BAY WI
300 AM CDT THU SEP 21 2017

WIZ005-009-010>012-018-019-210900-
NORTH CENTRAL WISCONSIN

CITY           SKY/WX    TMP DP  RH WIND       PRES   REMARKS
IRONWOOD       FOG       45  45 100 CALM      30.01S VSB 1
MANITOWISH WTR FOG       47  47 100 CALM      30.01S VSB 1/2
ARBOR VITAE    CLEAR     55  53  95 N6        30.00F FOG
EAGLE RIVER    FOG       54  54 100 CALM      30.01S VSB 1/2
LAND O LAKES   CLEAR     51  51  98 CALM      30.02S FOG
RHINELANDER    FOG       55  55 100 CALM      30.01S VSB 1/2
PHILLIPS       FOG       47  47 100 CALM      30.01S VSB 3/4
ANTIGO         MOCLDY    63  63 100 N6        29.99S FOG
TOMAHAWK       FOG       51  50  97 CALM      30.01S VSB 1/4
MERRILL        FOG       54  54 100 CALM      29.99R VSB 1/4
$$

WIZ013-073-210900-
NORTHEAST WISCONSIN

CITY           SKY/WX    TMP DP  RH WIND       PRES   REMARKS
IRON MOUNTAIN  CLOUDY    61  59  93 CALM      29.98R FOG
MARINETTE      CLOUDY    67  66  97 NW3       29.94S FOG
OCONTO         CLOUDY    65  65  97 CALM      29.92F
$$

WIZ017-030-035>037-045-210900-
CENTRAL WISCONSIN

CITY           SKY/WX    TMP DP  RH WIND       PRES   REMARKS
MEDFORD        FOG       51  51  99 CALM      29.99S VSB 1/2
WAUSAU         CLEAR     61  61 100 NW5       29.96S FOG
MOSINEE        CLEAR     61  61 100 N6        29.99F FOG
MARSHFIELD     CLEAR     59  57  93 N6        29.97F
WISC RAPIDS    MOCLDY    65  65 100 N6        29.96F FOG
STEVENS POINT  FOG       64  64 100 CALM      29.96F VSB 1/2
WAUPACA        CLOUDY    68  67  98 CALM      29.94F FOG
SHAWANO        FOG       66  64  94 CALM      29.95F VSB 1/2
CLINTONVILLE   NOT AVBL
WAUTOMA        FOG       68  68 100 S5        29.95S VSB 3/4
$$

WIZ038-039-048-051-210900-
FOX VALLEY

CITY           SKY/WX    TMP DP  RH WIND       PRES   REMARKS
NWS GREEN BAY  CLOUDY    66  66 100 NW7       29.93F
APPLETON       MOCLDY    66  66 100 CALM      29.94R
OSHKOSH        CLOUDY    68  66  93 NW6       29.92F
FOND DU LAC    MOCLDY    70  66  87 SW5       29.91F
$$

WIZ022-050-052-210900-
EAST CENTRAL WISCONSIN

CITY           SKY/WX    TMP DP  RH WIND       PRES   REMARKS
EPHRAIM        FAIR      67  67  97 W6        29.93S FOG
WASHINGTON ISL FAIR      65  65  97 N6        29.91F FOG
STURGEON BAY   CLOUDY    69  66  90 NW6       29.94S
MANITOWOC      MOCLDY    68  66  93 NW9       29.92R
SHEBOYGAN      MOCLDY    68  68 100 SW7       29.90F
$$

LMZ563-521-522-541>543-210900-
LAKESHORE

STATION/POSITION TIME  TEMP    WIND        PRES    VSBY  WAVE
                       AIR SEA DIR/SP/G                  HT/PER
                 (UTC) (F)     (DEG/KT/KT) (MB)    (MI)  (FT/S)
SHEBOYGAN LKSHOR 0800   71     220/ 10/ 11 1011.7F
KEWAUNEE LKSHORE 0742   67     290/  3/  4 1012.1F
NORTHPORT PIER   0740   70     310/  9/ 11 1012.9F
N MID LAKE BUOY  0750   67 65  320/  6/  8 1013.0F         3/ 6
S GREEN BAY BUOY 0800   69 66  310/ 12/ 16 1013.2
SISTER BAY LKSHO 0804   66        CALM       N/A
MENOMINEE LKSHOR 0742   69     270/  4/  6 1013.4S
$$



USA.gov is the U.S. government's official web portal to all federal, state and local government web resources and services.